Time,TemperatureF,DewpointF,PressureIn,WindDirection,WindDirectionDegrees,WindSpeedMPH,WindSpeedGustMPH,Humidity,HourlyPrecipIn,Conditions,Clouds,dailyrainin,SolarRadiationWatts/m^2,SoftwareType,DateUTC
2013-08-06 00:01:00,62.3,56.7,30.02,ESE,104,0.0,0.0,82,0.00,CLR,,0.00,0.0,WeatherDisplay:10.37,2013-08-06 04:01:00,
2013-08-06 00:02:00,62.4,56.8,30.02,ESE,104,0.0,0.0,82,0.00,BKN,,0.00,0.0,WeatherDisplay:10.37,2013-08-06 04:02:00,
2013-08-06 00:05:00,62.4,56.8,30.02,ESE,104,0.0,0.0,82,0.00,BKN,,0.00,0.0,WeatherDisplay:10.37,2013-08-06 04:05:00,
2013-08-06 00:10:00,62.6,57.0,30.02,ESE,104,0.0,0.0,82,0.00,BKN,,0.00,0.0,WeatherDisplay:10.37,2013-08-06 04:10:00,
2013-08-06 00:15:00,62.6,57.4,30.02,ESE,104,0.0,0.0,83,0.00,BKN,,0.00,0.0,WeatherDisplay:10.37,2013-08-06 04:15:00,
2013-08-06 00:20:00,62.6,57.4,30.03,ESE,104,0.0,0.0,83,0.00,BKN,,0.00,0.0,WeatherDisplay:10.37,2013-08-06 04:20:00,
2013-08-06 00:25:00,62.6,57.4,30.03,ESE,104,0.0,0.0,83,0.00,BKN,,0.00,0.0,WeatherDisplay:10.37,2013-08-06 04:25:00,
2013-08-06 00:30:00,62.6,57.4,30.03,ESE,104,0.0,0.0,83,0.00,BKN,,0.00,0.0,WeatherDisplay:10.37,2013-08-06 04:30:00,
2013-08-06 00:35:00,62.6,57.4,30.03,ESE,104,0.0,0.0,83,0.00,BKN,,0.00,0.0,WeatherDisplay:10.37,2013-08-06 04:35:00,
2013-08-06 00:40:00,62.6,57.4,30.03,ESE,104,0.0,0.0,83,0.00,BKN,,0.00,0.0,WeatherDisplay:10.37,2013-08-06 04:40:00,
2013-08-06 00:45:00,62.6,57.7,30.03,ESE,104,0.0,0.0,84,0.00,BKN,,0.00,0.0,WeatherDisplay:10.37,2013-08-06 04:45:00,
2013-08-06 00:50:00,62.6,57.7,30.03,ESE,104,0.0,0.0,84,0.00,BKN,,0.00,0.0,WeatherDisplay:10.37,2013-08-06 04:50:00,
2013-08-06 00:55:00,62.6,57.7,30.02,ESE,104,0.0,0.0,84,0.00,BKN,,0.00,0.0,WeatherDisplay:10.37,2013-08-06 04:55:00,
2013-08-06 01:00:00,62.6,57.7,30.02,ESE,104,0.0,0.0,84,0.00,BKN,,0.00,0.0,WeatherDisplay:10.37,2013-08-06 05:00:00,
2013-08-06 01:05:00,62.4,57.5,30.02,ESE,104,0.0,0.0,84,0.00,OVC,,0.00,0.0,WeatherDisplay:10.37,2013-08-06 05:05:00,
2013-08-06 01:10:00,62.4,57.2,30.02,ESE,104,0.0,0.0,83,0.00,OVC,,0.00,0.0,WeatherDisplay:10.37,2013-08-06 05:10:00,
2013-08-06 01:15:00,62.7,57.1,30.02,ESE,104,0.0,0.0,82,0.00,OVC,,0.00,0.0,WeatherDisplay:10.37,2013-08-06 05:15:00,
2013-08-06 01:20:00,63.1,57.2,30.02,ESE,104,0.0,0.0,81,0.00,OVC,,0.00,0.0,WeatherDisplay:10.37,2013-08-06 05:20:00,
2013-08-06 01:25:00,63.2,56.6,30.02,ESE,104,0.0,0.0,79,0.00,OVC,,0.00,0.0,WeatherDisplay:10.37,2013-08-06 05:25:00,
2013-08-06 01:30:00,63.9,56.5,30.02,ESE,104,0.0,0.0,77,0.00,OVC,,0.00,0.0,WeatherDisplay:10.37,2013-08-06 05:30:00,
2013-08-06 01:35:00,64.5,56.4,30.02,ESE,104,0.0,0.0,75,0.00,OVC,,0.00,0.0,WeatherDisplay:10.37,2013-08-06 05:35:00,
2013-08-06 01:40:00,65.2,55.9,30.01,ESE,104,0.0,0.0,72,0.00,OVC,,0.00,0.0,WeatherDisplay:10.37,2013-08-06 05:40:00,
2013-08-06 01:45:00,65.3,55.7,30.02,ESE,104,0.0,0.0,71,0.00,OVC,,0.00,0.0,WeatherDisplay:10.37,2013-08-06 05:45:00,
2013-08-06 01:50:00,65.3,55.7,30.02,ESE,104,0.0,0.0,71,0.00,OVC,,0.00,0.0,WeatherDisplay:10.37,2013-08-06 05:50:00,
2013-08-06 01:55:00,65.5,55.5,30.02,ESE,104,0.0,0.0,70,0.00,OVC,,0.00,0.0,WeatherDisplay:10.37,2013-08-06 05:55:00,
2013-08-06 02:00:00,65.6,55.2,30.02,ESE,104,0.0,0.0,69,0.00,OVC,,0.00,0.0,WeatherDisplay:10.37,2013-08-06 06:00:00,
2013-08-06 02:05:00,65.8,55.3,30.02,ESE,104,0.0,0.0,69,0.00,OVC,,0.00,0.0,WeatherDisplay:10.37,2013-08-06 06:05:00,
2013-08-06 02:10:00,66.1,55.2,30.02,ESE,104,0.0,0.0,68,0.00,OVC,,0.00,0.0,WeatherDisplay:10.37,2013-08-06 06:10:00,
2013-08-06 02:15:00,66.3,55.0,30.02,ESE,104,0.0,0.0,67,0.00,OVC,,0.00,0.0,WeatherDisplay:10.37,2013-08-06 06:15:00,
2013-08-06 02:20:00,66.3,55.0,30.02,ESE,104,0.0,0.0,67,0.00,OVC,,0.00,0.0,WeatherDisplay:10.37,2013-08-06 06:20:00,
2013-08-06 02:25:00,66.4,54.7,30.02,ESE,104,0.0,1.2,66,0.00,OVC,,0.00,0.0,WeatherDisplay:10.37,2013-08-06 06:25:00,
2013-08-06 02:30:00,66.6,54.9,30.01,ESE,105,0.2,1.2,66,0.00,OVC,,0.00,0.0,WeatherDisplay:10.37,2013-08-06 06:30:00,
2013-08-06 02:35:00,66.6,54.9,30.01,ESE,105,0.0,0.0,66,0.00,OVC,,0.00,0.0,WeatherDisplay:10.37,2013-08-06 06:35:00,
2013-08-06 02:40:00,66.4,54.7,30.01,ESE,105,0.0,0.0,66,0.00,OVC,,0.00,0.0,WeatherDisplay:10.37,2013-08-06 06:40:00,
2013-08-06 02:45:00,66.4,54.7,30.01,ESE,105,0.6,3.5,66,0.00,OVC,,0.00,0.0,WeatherDisplay:10.37,2013-08-06 06:45:00,
2013-08-06 02:50:00,66.4,54.7,30.01,ESE,103,0.3,1.2,66,0.00,OVC,,0.00,0.0,WeatherDisplay:10.37,2013-08-06 06:50:00,
2013-08-06 02:55:00,66.4,54.7,30.01,ESE,106,0.0,1.2,66,0.00,OVC,,0.00,0.0,WeatherDisplay:10.37,2013-08-06 06:55:00,
2013-08-06 03:00:00,66.3,54.6,30.01,ESE,106,0.0,0.0,66,0.00,OVC,,0.00,0.0,WeatherDisplay:10.37,2013-08-06 07:00:00,
2013-08-06 03:05:00,66.3,54.6,30.01,ESE,106,0.0,0.0,66,0.00,OVC,,0.00,0.0,WeatherDisplay:10.37,2013-08-06 07:05:00,
2013-08-06 03:10:00,66.1,54.4,30.01,ESE,106,0.1,1.2,66,0.00,OVC,,0.00,0.0,WeatherDisplay:10.37,2013-08-06 07:10:00,
2013-08-06 03:15:00,66.0,54.3,30.01,ESE,106,0.0,0.0,66,0.00,BKN,,0.00,0.0,WeatherDisplay:10.37,2013-08-06 07:15:00,
2013-08-06 03:20:00,66.0,54.7,30.01,ESE,106,0.0,0.0,67,0.00,BKN,,0.00,0.0,WeatherDisplay:10.37,2013-08-06 07:20:00,
2013-08-06 03:25:00,66.0,54.7,30.01,ESE,106,0.0,0.0,67,0.00,BKN,,0.00,0.0,WeatherDisplay:10.37,2013-08-06 07:25:00,
2013-08-06 03:30:00,66.1,54.8,30.01,ESE,106,0.8,1.2,67,0.00,BKN,,0.00,0.0,WeatherDisplay:10.37,2013-08-06 07:30:00,
2013-08-06 03:35:00,66.1,54.8,30.01,ESE,106,0.0,0.0,67,0.00,BKN,,0.00,0.0,WeatherDisplay:10.37,2013-08-06 07:35:00,
2013-08-06 03:40:00,66.3,55.0,30.01,ESE,106,0.0,0.0,67,0.00,BKN,,0.00,0.0,WeatherDisplay:10.37,2013-08-06 07:40:00,
2013-08-06 03:45:00,66.3,55.0,30.00,ESE,106,0.1,0.0,67,0.00,BKN,,0.00,0.0,WeatherDisplay:10.37,2013-08-06 07:45:00,
2013-08-06 03:50:00,66.4,55.1,30.00,ESE,106,0.0,0.0,67,0.00,BKN,,0.00,0.0,WeatherDisplay:10.37,2013-08-06 07:50:00,
2013-08-06 03:55:00,66.3,55.4,30.00,ESE,106,0.1,1.2,68,0.00,BKN,,0.00,0.0,WeatherDisplay:10.37,2013-08-06 07:55:00,
2013-08-06 04:00:00,66.3,55.8,30.01,ESE,107,0.0,1.2,69,0.00,BKN,,0.00,0.0,WeatherDisplay:10.37,2013-08-06 08:00:00,
2013-08-06 04:05:00,66.1,55.6,30.00,ESE,107,0.1,1.2,69,0.00,OVC,,0.00,0.0,WeatherDisplay:10.37,2013-08-06 08:05:00,
2013-08-06 04:10:00,66.1,55.6,30.00,ESE,108,0.0,0.0,69,0.00,OVC,,0.00,0.0,WeatherDisplay:10.37,2013-08-06 08:10:00,
2013-08-06 04:15:00,66.1,55.6,30.01,ESE,108,0.0,1.5,69,0.00,OVC,,0.00,0.0,WeatherDisplay:10.37,2013-08-06 08:15:00,
2013-08-06 04:20:00,66.3,55.8,30.00,ESE,109,0.1,1.2,69,0.00,OVC,,0.00,0.0,WeatherDisplay:10.37,2013-08-06 08:20:00,
2013-08-06 04:25:00,66.3,56.2,30.00,ESE,109,0.0,0.0,70,0.00,OVC,,0.00,0.0,WeatherDisplay:10.37,2013-08-06 08:25:00,
2013-08-06 04:30:00,66.3,56.2,30.00,ESE,109,0.0,0.0,70,0.00,OVC,,0.00,0.0,WeatherDisplay:10.37,2013-08-06 08:30:00,
2013-08-06 04:35:00,66.3,56.6,30.00,ESE,109,0.1,1.5,71,0.00,OVC,,0.00,0.0,WeatherDisplay:10.37,2013-08-06 08:35:00,
2013-08-06 04:40:00,66.4,56.7,30.00,ESE,109,0.0,1.2,71,0.00,OVC,,0.00,0.0,WeatherDisplay:10.37,2013-08-06 08:40:00,
2013-08-06 04:45:00,66.1,57.6,30.00,SE,133,0.8,3.0,74,0.07,RA,,0.08,0.0,WeatherDisplay:10.37,2013-08-06 08:45:00,
2013-08-06 04:50:00,65.3,57.9,30.00,SE,133,0.0,0.0,77,0.10,RA,,0.10,0.0,WeatherDisplay:10.37,2013-08-06 08:50:00,
2013-08-06 04:55:00,64.8,57.8,30.00,SE,133,0.0,0.0,78,0.10,RA,,0.10,0.0,WeatherDisplay:10.37,2013-08-06 08:55:00,
2013-08-06 05:00:00,64.5,57.8,30.00,SE,133,0.0,0.0,79,0.10,OVC,,0.10,0.0,WeatherDisplay:10.37,2013-08-06 09:00:00,
2013-08-06 05:05:00,64.3,58.3,30.00,SE,133,0.0,0.0,81,0.10,OVC,,0.10,0.0,WeatherDisplay:10.37,2013-08-06 09:05:00,
2013-08-06 05:10:00,64.2,58.2,30.01,SE,133,0.0,0.0,81,0.11,RA,,0.11,0.0,WeatherDisplay:10.37,2013-08-06 09:10:00,
2013-08-06 05:15:00,63.9,58.3,30.01,SE,134,0.0,0.0,82,0.11,RA,,0.11,0.0,WeatherDisplay:10.37,2013-08-06 09:15:00,
2013-08-06 05:21:00,63.9,58.3,30.01,SE,134,0.1,1.5,82,0.11,OVC,,0.12,0.0,WeatherDisplay:10.37,2013-08-06 09:21:00,
2013-08-06 05:26:00,63.9,58.6,30.01,SE,133,0.0,0.0,83,0.14,RA,,0.14,0.0,WeatherDisplay:10.37,2013-08-06 09:26:00,
2013-08-06 05:31:00,63.7,58.4,30.01,SE,133,0.0,0.0,83,0.15,RA,,0.15,0.0,WeatherDisplay:10.37,2013-08-06 09:31:00,
2013-08-06 05:36:00,63.5,58.6,30.01,SE,132,0.5,3.5,84,0.16,RA,,0.16,0.0,WeatherDisplay:10.37,2013-08-06 09:36:00,
2013-08-06 05:41:00,63.5,58.6,30.01,SE,132,0.2,1.5,84,0.16,RA,,0.17,0.0,WeatherDisplay:10.37,2013-08-06 09:41:00,
2013-08-06 05:46:00,63.4,58.8,30.01,SE,132,0.3,1.5,85,0.11,RA,,0.19,0.0,WeatherDisplay:10.37,2013-08-06 09:46:00,
2013-08-06 05:51:00,63.4,58.8,30.01,SE,132,0.2,1.5,85,0.09,RA,,0.19,0.0,WeatherDisplay:10.37,2013-08-06 09:51:00,
2013-08-06 05:56:00,63.4,59.1,30.01,SE,132,0.7,1.5,86,0.09,OVC,,0.19,0.0,WeatherDisplay:10.37,2013-08-06 09:56:00,
2013-08-06 06:01:00,63.4,59.1,30.01,SE,132,0.0,1.2,86,0.09,OVC,,0.19,0.0,WeatherDisplay:10.37,2013-08-06 10:01:00,
2013-08-06 06:06:00,63.5,59.2,30.01,SE,132,0.7,1.2,86,0.09,OVC,,0.19,0.0,WeatherDisplay:10.37,2013-08-06 10:06:00,
2013-08-06 06:11:00,63.5,59.6,30.01,SE,131,0.0,1.5,87,0.08,OVC,,0.19,0.0,WeatherDisplay:10.37,2013-08-06 10:11:00,
2013-08-06 06:16:00,63.7,59.8,30.01,SE,130,0.3,3.5,87,0.08,OVC,,0.19,0.0,WeatherDisplay:10.37,2013-08-06 10:16:00,
2013-08-06 06:21:00,63.7,59.8,30.01,SE,130,1.3,4.6,87,0.08,OVC,,0.19,0.0,WeatherDisplay:10.37,2013-08-06 10:21:00,
2013-08-06 06:26:00,63.7,59.8,30.01,SE,130,0.0,0.0,87,0.05,OVC,,0.19,0.0,WeatherDisplay:10.37,2013-08-06 10:26:00,
2013-08-06 06:31:00,63.7,60.1,30.01,SE,130,0.0,0.0,88,0.04,OVC,,0.19,0.0,WeatherDisplay:10.37,2013-08-06 10:31:00,
2013-08-06 06:36:00,63.7,60.1,30.01,SE,130,0.0,0.0,88,0.03,OVC,,0.19,0.0,WeatherDisplay:10.37,2013-08-06 10:36:00,
2013-08-06 06:41:00,63.7,60.1,30.01,SE,130,0.0,0.0,88,0.03,OVC,,0.19,0.0,WeatherDisplay:10.37,2013-08-06 10:41:00,
2013-08-06 06:46:00,63.9,60.3,30.01,SE,130,0.0,0.0,88,0.00,OVC,,0.19,0.0,WeatherDisplay:10.37,2013-08-06 10:46:00,
2013-08-06 06:51:00,63.9,60.3,30.01,SE,130,0.0,0.0,88,0.01,RA,,0.20,0.0,WeatherDisplay:10.37,2013-08-06 10:51:00,
2013-08-06 06:56:00,64.0,60.4,30.02,SE,130,0.0,1.2,88,0.02,RA,,0.21,0.0,WeatherDisplay:10.37,2013-08-06 10:56:00,
2013-08-06 07:01:00,64.0,60.4,30.02,SSW,210,0.6,3.0,88,0.03,RA,,0.22,0.0,WeatherDisplay:10.37,2013-08-06 11:01:00,
2013-08-06 07:06:00,64.0,60.4,30.03,SSW,213,0.5,3.0,88,0.03,RA,,0.23,0.0,WeatherDisplay:10.37,2013-08-06 11:06:00,
2013-08-06 07:11:00,63.9,60.3,30.03,WNW,292,3.3,4.6,88,0.07,RA,,0.26,5.0,WeatherDisplay:10.37,2013-08-06 11:11:00,
2013-08-06 07:16:00,63.9,60.3,30.03,WNW,292,0.0,0.0,88,0.08,RA,,0.28,7.0,WeatherDisplay:10.37,2013-08-06 11:16:00,
2013-08-06 07:21:00,63.7,60.4,30.03,WNW,292,0.0,0.0,89,0.10,RA,,0.29,18.0,WeatherDisplay:10.37,2013-08-06 11:21:00,
2013-08-06 07:26:00,63.7,60.4,30.03,WNW,292,0.0,0.0,89,0.10,RA,,0.29,9.0,WeatherDisplay:10.37,2013-08-06 11:26:00,
2013-08-06 07:31:00,63.9,60.6,30.03,WNW,292,0.0,0.0,89,0.11,RA,,0.30,5.0,WeatherDisplay:10.37,2013-08-06 11:31:00,
2013-08-06 07:36:00,63.9,60.6,30.04,WNW,289,0.4,1.5,89,0.13,RA,,0.32,0.0,WeatherDisplay:10.37,2013-08-06 11:36:00,
2013-08-06 07:41:00,63.9,60.6,30.04,WNW,289,0.0,0.0,89,0.16,RA,,0.36,5.0,WeatherDisplay:10.37,2013-08-06 11:41:00,
2013-08-06 07:46:00,63.9,60.6,30.03,WNW,289,0.0,0.0,89,0.23,RA,,0.42,7.0,WeatherDisplay:10.37,2013-08-06 11:46:00,
2013-08-06 07:51:00,63.7,60.4,30.04,WNW,289,0.0,0.0,89,0.25,RA,,0.45,7.0,WeatherDisplay:10.37,2013-08-06 11:51:00,
2013-08-06 07:56:00,63.7,60.7,30.03,WNW,289,0.0,0.0,90,0.27,RA,,0.50,14.0,WeatherDisplay:10.37,2013-08-06 11:56:00,
2013-08-06 08:01:00,63.7,60.7,30.03,WNW,289,0.0,0.0,90,0.34,RA,,0.56,16.0,WeatherDisplay:10.37,2013-08-06 12:01:00,
2013-08-06 08:06:00,63.7,60.7,30.03,WNW,289,0.0,0.0,90,0.33,RA,,0.56,23.0,WeatherDisplay:10.37,2013-08-06 12:06:00,
2013-08-06 08:11:00,63.9,60.9,30.04,WNW,289,0.0,0.0,90,0.30,OVC,,0.56,19.0,WeatherDisplay:10.37,2013-08-06 12:11:00,
2013-08-06 08:16:00,63.9,60.9,30.04,WNW,291,0.7,3.0,90,0.29,OVC,,0.56,30.0,WeatherDisplay:10.37,2013-08-06 12:16:00,
2013-08-06 08:21:00,63.9,60.9,30.03,WNW,291,0.0,0.0,90,0.29,RA,,0.57,54.0,WeatherDisplay:10.37,2013-08-06 12:21:00,
2013-08-06 08:26:00,64.0,61.0,30.04,WNW,291,0.0,0.0,90,0.28,RA,,0.57,62.0,WeatherDisplay:10.37,2013-08-06 12:26:00,
2013-08-06 08:31:00,64.0,61.0,30.04,WNW,291,0.0,0.0,90,0.27,OVC,,0.57,62.0,WeatherDisplay:10.37,2013-08-06 12:31:00,
2013-08-06 08:36:00,64.2,61.5,30.04,WNW,292,0.1,1.5,91,0.26,OVC,,0.57,79.0,WeatherDisplay:10.37,2013-08-06 12:36:00,
2013-08-06 08:41:00,64.3,61.6,30.03,WNW,292,0.5,1.2,91,0.22,OVC,,0.57,123.0,WeatherDisplay:10.37,2013-08-06 12:41:00,
2013-08-06 08:46:00,64.7,62.0,30.03,WNW,292,0.1,1.2,91,0.15,OVC,,0.57,151.0,WeatherDisplay:10.37,2013-08-06 12:46:00,
2013-08-06 08:51:00,64.7,62.0,30.03,SE,126,0.9,5.8,91,0.12,OVC,,0.57,158.0,WeatherDisplay:10.37,2013-08-06 12:51:00,
2013-08-06 08:56:00,64.8,62.1,30.03,ESE,119,0.0,0.0,91,0.09,OVC,,0.57,158.0,WeatherDisplay:10.37,2013-08-06 12:56:00,
2013-08-06 09:01:00,65.0,62.3,30.03,ESE,119,0.0,0.0,91,0.01,OVC,,0.57,146.0,WeatherDisplay:10.37,2013-08-06 13:01:00,
2013-08-06 09:06:00,65.2,62.5,30.03,ESE,119,1.1,3.5,91,0.01,OVC,,0.57,132.0,WeatherDisplay:10.37,2013-08-06 13:06:00,
2013-08-06 09:11:00,65.0,62.3,30.04,SSE,157,1.7,3.5,91,0.01,OVC,,0.57,142.0,WeatherDisplay:10.37,2013-08-06 13:11:00,
2013-08-06 09:16:00,65.2,62.5,30.04,SSE,159,2.1,3.0,91,0.01,OVC,,0.57,155.0,WeatherDisplay:10.37,2013-08-06 13:16:00,
2013-08-06 09:21:00,65.3,62.6,30.04,SSE,158,0.8,3.0,91,0.00,OVC,,0.57,181.0,WeatherDisplay:10.37,2013-08-06 13:21:00,
2013-08-06 09:26:00,65.5,62.8,30.03,SSE,162,1.5,3.0,91,0.00,OVC,,0.57,199.0,WeatherDisplay:10.37,2013-08-06 13:26:00,
2013-08-06 09:31:00,65.5,62.8,30.03,ESE,107,3.9,5.8,91,0.00,OVC,,0.57,279.0,WeatherDisplay:10.37,2013-08-06 13:31:00,
2013-08-06 09:36:00,65.8,63.1,30.03,South,172,4.8,6.0,91,0.00,OVC,,0.57,359.0,WeatherDisplay:10.37,2013-08-06 13:36:00,
2013-08-06 09:41:00,66.0,63.0,30.04,SSE,151,1.0,4.6,90,0.00,OVC,,0.57,192.0,WeatherDisplay:10.37,2013-08-06 13:41:00,
2013-08-06 09:46:00,65.8,63.1,30.04,East,96,2.6,4.6,91,0.00,OVC,,0.57,306.0,WeatherDisplay:10.37,2013-08-06 13:46:00,
2013-08-06 09:51:00,66.1,63.4,30.04,SE,135,1.6,4.5,91,0.00,OVC,,0.57,209.0,WeatherDisplay:10.37,2013-08-06 13:51:00,
2013-08-06 09:56:00,66.1,63.4,30.04,East,101,3.6,8.1,91,0.00,OVC,,0.57,246.0,WeatherDisplay:10.37,2013-08-06 13:56:00,
2013-08-06 10:01:00,66.3,63.6,30.04,ESE,105,0.2,1.5,91,0.00,OVC,,0.57,332.0,WeatherDisplay:10.37,2013-08-06 14:01:00,
2013-08-06 10:06:00,66.6,63.9,30.04,ESE,111,0.0,4.6,91,0.00,OVC,,0.57,378.0,WeatherDisplay:10.37,2013-08-06 14:06:00,
2013-08-06 10:11:00,67.1,64.4,30.04,East,93,0.4,1.5,91,0.00,OVC,,0.57,411.0,WeatherDisplay:10.37,2013-08-06 14:11:00,
2013-08-06 10:16:00,67.6,64.9,30.04,East,96,2.4,4.5,91,0.00,OVC,,0.57,408.0,WeatherDisplay:10.37,2013-08-06 14:16:00,
2013-08-06 10:21:00,67.6,64.6,30.04,SE,146,3.1,4.6,90,0.00,OVC,,0.57,707.0,WeatherDisplay:10.37,2013-08-06 14:21:00,
2013-08-06 10:26:00,67.9,64.9,30.04,ESE,121,1.8,4.6,90,0.00,OVC,,0.57,432.0,WeatherDisplay:10.37,2013-08-06 14:26:00,
2013-08-06 10:31:00,68.4,65.0,30.05,SE,142,0.9,4.6,89,0.00,OVC,,0.57,418.0,WeatherDisplay:10.37,2013-08-06 14:31:00,
2013-08-06 10:36:00,68.4,64.7,30.05,SE,144,0.9,4.6,88,0.00,OVC,,0.57,276.0,WeatherDisplay:10.37,2013-08-06 14:36:00,
2013-08-06 10:41:00,68.4,64.7,30.05,SE,142,0.1,1.5,88,0.00,OVC,,0.57,385.0,WeatherDisplay:10.37,2013-08-06 14:41:00,
2013-08-06 10:46:00,68.8,64.8,30.05,SE,142,0.1,1.2,87,0.00,OVC,,0.57,420.0,WeatherDisplay:10.37,2013-08-06 14:46:00,
2013-08-06 10:51:00,69.3,64.9,30.05,SSE,150,2.3,8.1,86,0.00,OVC,,0.57,364.0,WeatherDisplay:10.37,2013-08-06 14:51:00,
2013-08-06 10:56:00,69.1,64.1,30.05,SSE,163,4.1,8.1,84,0.00,OVC,,0.57,272.0,WeatherDisplay:10.37,2013-08-06 14:56:00,
2013-08-06 11:01:00,69.1,63.4,30.05,SE,128,2.6,8.1,82,0.00,OVC,,0.57,197.0,WeatherDisplay:10.37,2013-08-06 15:01:00,
2013-08-06 11:06:00,68.9,62.5,30.05,SSE,159,5.9,9.0,80,0.00,BKN,,0.57,229.0,WeatherDisplay:10.37,2013-08-06 15:06:00,
2013-08-06 11:11:00,69.1,62.7,30.05,SSE,161,3.7,4.6,80,0.00,BKN,,0.57,279.0,WeatherDisplay:10.37,2013-08-06 15:11:00,
2013-08-06 11:16:00,69.4,63.0,30.05,ESE,106,1.2,5.8,80,0.00,BKN,,0.57,364.0,WeatherDisplay:10.37,2013-08-06 15:16:00,
2013-08-06 11:21:00,69.9,63.4,30.05,ESE,113,2.4,4.6,80,0.00,BKN,,0.57,369.0,WeatherDisplay:10.37,2013-08-06 15:21:00,
2013-08-06 11:26:00,70.1,62.9,30.05,SSE,159,1.8,4.6,78,0.00,OVC,,0.57,406.0,WeatherDisplay:10.37,2013-08-06 15:26:00,
2013-08-06 11:31:00,70.4,63.2,30.05,SE,130,2.3,4.6,78,0.00,OVC,,0.57,454.0,WeatherDisplay:10.37,2013-08-06 15:31:00,
2013-08-06 11:36:00,71.1,63.9,30.05,East,97,2.1,4.6,78,0.00,OVC,,0.57,476.0,WeatherDisplay:10.37,2013-08-06 15:36:00,
2013-08-06 11:41:00,71.3,63.7,30.05,South,186,1.2,3.5,77,0.00,OVC,,0.57,357.0,WeatherDisplay:10.37,2013-08-06 15:41:00,
2013-08-06 11:46:00,71.1,62.8,30.05,SSE,155,1.3,5.8,75,0.00,OVC,,0.57,306.0,WeatherDisplay:10.37,2013-08-06 15:46:00,
2013-08-06 11:51:00,70.8,62.1,30.05,SSE,159,2.4,5.8,74,0.00,OVC,,0.57,411.0,WeatherDisplay:10.37,2013-08-06 15:51:00,
2013-08-06 11:56:00,71.1,62.8,30.05,SSE,167,0.6,3.5,75,0.00,OVC,,0.57,322.0,WeatherDisplay:10.37,2013-08-06 15:56:00,
2013-08-06 12:01:00,70.9,62.6,30.05,ESE,105,0.0,1.5,75,0.00,OVC,,0.57,281.0,WeatherDisplay:10.37,2013-08-06 16:01:00,
2013-08-06 12:06:00,71.1,62.8,30.05,ESE,105,0.2,1.5,75,0.00,OVC,,0.57,316.0,WeatherDisplay:10.37,2013-08-06 16:06:00,
2013-08-06 12:11:00,71.3,63.3,30.05,ESE,105,0.0,0.0,76,0.00,OVC,,0.57,359.0,WeatherDisplay:10.37,2013-08-06 16:11:00,
2013-08-06 12:16:00,71.5,63.2,30.05,ESE,105,0.5,3.5,75,0.00,OVC,,0.57,362.0,WeatherDisplay:10.37,2013-08-06 16:16:00,
2013-08-06 12:21:00,71.6,63.6,30.05,ESE,103,0.5,1.5,76,0.00,OVC,,0.57,323.0,WeatherDisplay:10.37,2013-08-06 16:21:00,
2013-08-06 12:26:00,71.5,63.2,30.05,SSW,197,2.0,9.0,75,0.00,OVC,,0.57,397.0,WeatherDisplay:10.37,2013-08-06 16:26:00,
2013-08-06 12:31:00,72.1,63.7,30.05,SSE,166,0.4,1.5,75,0.00,OVC,,0.57,417.0,WeatherDisplay:10.37,2013-08-06 16:31:00,
2013-08-06 12:36:00,72.3,63.9,30.05,SE,125,0.0,5.8,75,0.00,OVC,,0.57,338.0,WeatherDisplay:10.37,2013-08-06 16:36:00,
2013-08-06 12:41:00,72.7,63.5,30.05,ESE,123,0.9,3.0,73,0.00,OVC,,0.57,550.0,WeatherDisplay:10.37,2013-08-06 16:41:00,
2013-08-06 12:46:00,72.8,63.2,30.04,SSE,167,3.6,8.1,72,0.00,OVC,,0.57,499.0,WeatherDisplay:10.37,2013-08-06 16:46:00,
2013-08-06 12:51:00,73.2,63.2,30.04,SSE,153,2.1,5.8,71,0.00,OVC,,0.57,548.0,WeatherDisplay:10.37,2013-08-06 16:51:00,
2013-08-06 12:56:00,73.5,63.1,30.05,South,170,0.7,3.5,70,0.00,OVC,,0.57,547.0,WeatherDisplay:10.37,2013-08-06 16:56:00,
2013-08-06 13:01:00,73.9,63.9,30.04,NNE,20,2.9,5.8,71,0.00,OVC,,0.57,292.0,WeatherDisplay:10.37,2013-08-06 17:01:00,
2013-08-06 13:06:00,73.5,63.5,30.04,SSW,201,2.0,4.5,71,0.00,OVC,,0.57,190.0,WeatherDisplay:10.37,2013-08-06 17:06:00,
2013-08-06 13:11:00,73.5,63.9,30.04,SSW,200,0.0,0.0,72,0.00,OVC,,0.57,178.0,WeatherDisplay:10.37,2013-08-06 17:11:00,
2013-08-06 13:16:00,73.2,63.2,30.04,SSW,194,0.6,1.5,71,0.00,OVC,,0.57,171.0,WeatherDisplay:10.37,2013-08-06 17:16:00,
2013-08-06 13:21:00,72.7,62.8,30.04,ENE,73,1.9,3.5,71,0.00,OVC,,0.57,171.0,WeatherDisplay:10.37,2013-08-06 17:21:00,
2013-08-06 13:26:00,72.5,63.0,30.04,ENE,73,0.6,3.0,72,0.00,OVC,,0.57,171.0,WeatherDisplay:10.37,2013-08-06 17:26:00,
2013-08-06 13:27:00,72.5,63.0,30.04,ENE,73,1.9,3.5,72,0.00,OVC,,0.57,174.0,WeatherDisplay:10.37,2013-08-06 17:27:00,
2013-08-06 13:32:00,72.3,62.8,30.04,ENE,70,0.5,1.5,72,0.00,OVC,,0.57,199.0,WeatherDisplay:10.37,2013-08-06 17:32:00,
2013-08-06 13:37:00,72.5,63.4,30.04,ENE,70,0.3,1.2,73,0.00,OVC,,0.57,216.0,WeatherDisplay:10.37,2013-08-06 17:37:00,
2013-08-06 13:42:00,72.7,63.1,30.04,ENE,70,1.8,3.5,72,0.00,OVC,,0.57,223.0,WeatherDisplay:10.37,2013-08-06 17:42:00,
2013-08-06 13:47:00,72.7,63.1,30.04,ENE,70,2.0,3.5,72,0.00,OVC,,0.57,236.0,WeatherDisplay:10.37,2013-08-06 17:47:00,
2013-08-06 13:52:00,72.8,63.2,30.04,NE,43,2.4,4.6,72,0.00,OVC,,0.57,251.0,WeatherDisplay:10.37,2013-08-06 17:52:00,
2013-08-06 13:57:00,73.0,63.8,30.04,NE,51,0.0,0.0,73,0.00,OVC,,0.57,297.0,WeatherDisplay:10.37,2013-08-06 17:57:00,
2013-08-06 14:02:00,73.2,63.6,30.04,NE,52,2.3,4.5,72,0.00,OVC,,0.57,345.0,WeatherDisplay:10.37,2013-08-06 18:02:00,
2013-08-06 14:07:00,73.3,63.7,30.03,NE,54,1.0,3.5,72,0.00,OVC,,0.57,181.0,WeatherDisplay:10.37,2013-08-06 18:07:00,
2013-08-06 14:12:00,73.5,63.5,30.03,NE,47,0.9,3.5,71,0.00,OVC,,0.57,123.0,WeatherDisplay:10.37,2013-08-06 18:12:00,
2013-08-06 14:17:00,73.3,63.3,30.03,NE,46,0.1,1.5,71,0.00,OVC,,0.57,102.0,WeatherDisplay:10.37,2013-08-06 18:17:00,
2013-08-06 14:22:00,73.3,63.3,30.03,NE,46,0.0,1.2,71,0.00,OVC,,0.57,114.0,WeatherDisplay:10.37,2013-08-06 18:22:00,
2013-08-06 14:27:00,73.2,62.8,30.03,NE,44,0.0,0.0,70,0.00,OVC,,0.57,179.0,WeatherDisplay:10.37,2013-08-06 18:27:00,
2013-08-06 14:32:00,73.3,62.9,30.03,NE,44,0.1,1.5,70,0.00,OVC,,0.57,172.0,WeatherDisplay:10.37,2013-08-06 18:32:00,
2013-08-06 14:37:00,73.7,62.9,30.03,NE,40,1.5,3.0,69,0.00,OVC,,0.57,202.0,WeatherDisplay:10.37,2013-08-06 18:37:00,
2013-08-06 14:42:00,73.9,63.5,30.03,North,355,1.4,3.0,70,0.00,OVC,,0.57,297.0,WeatherDisplay:10.37,2013-08-06 18:42:00,
2013-08-06 14:47:00,74.0,64.4,30.03,NNW,347,4.3,6.0,72,0.00,OVC,,0.57,250.0,WeatherDisplay:10.37,2013-08-06 18:47:00,
2013-08-06 14:52:00,73.7,64.1,30.03,NW,315,2.6,4.6,72,0.00,OVC,,0.57,338.0,WeatherDisplay:10.37,2013-08-06 18:52:00,
2013-08-06 14:57:00,73.7,63.7,30.03,WNW,288,5.8,8.1,71,0.00,OVC,,0.57,410.0,WeatherDisplay:10.37,2013-08-06 18:57:00,
2013-08-06 15:02:00,74.2,64.2,30.03,NW,313,0.1,1.2,71,0.00,OVC,,0.57,1039.0,WeatherDisplay:10.37,2013-08-06 19:02:00,
2013-08-06 15:07:00,74.9,64.0,30.03,NW,313,0.1,1.2,69,0.00,OVC,,0.57,408.0,WeatherDisplay:10.37,2013-08-06 19:07:00,
2013-08-06 15:12:00,75.1,63.8,30.03,NW,313,0.0,1.2,68,0.00,OVC,,0.57,439.0,WeatherDisplay:10.37,2013-08-06 19:12:00,
2013-08-06 15:17:00,75.8,64.1,30.03,NE,51,0.6,3.5,67,0.00,OVC,,0.57,867.0,WeatherDisplay:10.37,2013-08-06 19:17:00,
2013-08-06 15:22:00,76.8,65.9,30.03,NNW,348,2.9,6.0,69,0.00,OVC,,0.57,840.0,WeatherDisplay:10.37,2013-08-06 19:22:00,
2013-08-06 15:27:00,77.4,66.0,30.02,North,360,5.1,6.0,68,0.00,OVC,,0.57,902.0,WeatherDisplay:10.37,2013-08-06 19:27:00,
2013-08-06 15:32:00,77.2,64.5,30.02,NNE,19,1.8,4.6,65,0.00,OVC,,0.57,236.0,WeatherDisplay:10.37,2013-08-06 19:32:00,
2013-08-06 15:37:00,76.7,64.0,30.02,East,89,3.9,5.8,65,0.00,OVC,,0.57,251.0,WeatherDisplay:10.37,2013-08-06 19:37:00,
2013-08-06 15:42:00,76.1,63.9,30.02,East,90,2.2,4.6,66,0.00,OVC,,0.57,248.0,WeatherDisplay:10.37,2013-08-06 19:42:00,
2013-08-06 15:47:00,76.3,65.0,30.02,South,176,1.5,3.5,68,0.00,OVC,,0.57,891.0,WeatherDisplay:10.37,2013-08-06 19:47:00,
2013-08-06 15:52:00,77.0,64.8,30.02,ENE,59,3.5,4.6,66,0.00,OVC,,0.57,791.0,WeatherDisplay:10.37,2013-08-06 19:52:00,
2013-08-06 15:57:00,77.0,63.9,30.03,North,350,0.9,4.6,64,0.00,OVC,,0.57,209.0,WeatherDisplay:10.37,2013-08-06 19:57:00,
2013-08-06 16:02:00,76.8,64.1,30.02,NNE,22,0.0,1.2,65,0.00,OVC,,0.57,197.0,WeatherDisplay:10.37,2013-08-06 20:02:00,
2013-08-06 16:07:00,76.3,64.1,30.03,ENE,71,1.0,3.5,66,0.00,OVC,,0.57,227.0,WeatherDisplay:10.37,2013-08-06 20:07:00,
2013-08-06 16:12:00,76.1,63.9,30.03,ENE,72,0.0,0.0,66,0.00,OVC,,0.57,186.0,WeatherDisplay:10.37,2013-08-06 20:12:00,
2013-08-06 16:17:00,76.1,63.9,30.03,SSE,158,0.0,1.2,66,0.00,OVC,,0.57,272.0,WeatherDisplay:10.37,2013-08-06 20:17:00,
2013-08-06 16:22:00,76.7,64.5,30.03,SE,146,0.0,0.0,66,0.00,OVC,,0.57,733.0,WeatherDisplay:10.37,2013-08-06 20:22:00,
2013-08-06 16:27:00,77.2,64.5,30.03,SE,146,0.9,3.5,65,0.00,OVC,,0.57,327.0,WeatherDisplay:10.37,2013-08-06 20:27:00,
2013-08-06 16:32:00,77.4,63.8,30.03,SE,136,2.4,6.0,63,0.00,OVC,,0.57,225.0,WeatherDisplay:10.37,2013-08-06 20:32:00,
2013-08-06 16:37:00,77.2,63.6,30.03,ESE,106,1.8,4.5,63,0.00,OVC,,0.57,677.0,WeatherDisplay:10.37,2013-08-06 20:37:00,
2013-08-06 16:42:00,77.2,63.2,30.03,East,89,0.1,1.5,62,0.00,OVC,,0.57,325.0,WeatherDisplay:10.37,2013-08-06 20:42:00,
2013-08-06 16:47:00,76.8,63.2,30.03,SSE,150,3.4,6.0,63,0.00,OVC,,0.57,206.0,WeatherDisplay:10.37,2013-08-06 20:47:00,
2013-08-06 16:52:00,76.8,63.7,30.03,SE,140,1.2,3.5,64,0.00,OVC,,0.57,635.0,WeatherDisplay:10.37,2013-08-06 20:52:00,
2013-08-06 16:57:00,77.2,64.1,30.03,SSE,163,0.3,3.5,64,0.00,OVC,,0.57,313.0,WeatherDisplay:10.37,2013-08-06 20:57:00,
2013-08-06 17:02:00,77.4,64.3,30.03,SE,132,0.0,1.2,64,0.00,OVC,,0.57,571.0,WeatherDisplay:10.37,2013-08-06 21:02:00,
2013-08-06 17:07:00,77.7,65.0,30.03,SE,136,0.2,1.5,65,0.00,OVC,,0.57,534.0,WeatherDisplay:10.37,2013-08-06 21:07:00,
2013-08-06 17:12:00,77.7,64.1,30.03,SE,135,0.7,4.5,63,0.00,OVC,,0.57,471.0,WeatherDisplay:10.37,2013-08-06 21:12:00,
2013-08-06 17:17:00,76.7,63.2,30.03,South,169,0.2,3.5,63,0.00,OVC,,0.57,153.0,WeatherDisplay:10.37,2013-08-06 21:17:00,
2013-08-06 17:22:00,76.3,63.7,30.03,SSE,168,0.6,3.5,65,0.00,OVC,,0.57,524.0,WeatherDisplay:10.37,2013-08-06 21:22:00,
2013-08-06 17:27:00,76.7,64.9,30.03,SSE,157,2.1,4.6,67,0.00,OVC,,0.57,499.0,WeatherDisplay:10.37,2013-08-06 21:27:00,
2013-08-06 17:32:00,76.7,64.5,30.03,ESE,109,2.2,8.1,66,0.00,OVC,,0.57,202.0,WeatherDisplay:10.37,2013-08-06 21:32:00,
2013-08-06 17:37:00,76.1,63.9,30.03,ESE,112,3.6,8.1,66,0.00,OVC,,0.57,237.0,WeatherDisplay:10.37,2013-08-06 21:37:00,
2013-08-06 17:42:00,76.0,63.8,30.03,SE,132,2.9,5.8,66,0.00,OVC,,0.57,218.0,WeatherDisplay:10.37,2013-08-06 21:42:00,
2013-08-06 17:47:00,75.6,63.4,30.02,ESE,107,2.4,4.6,66,0.00,OVC,,0.57,105.0,WeatherDisplay:10.37,2013-08-06 21:47:00,
2013-08-06 17:52:00,75.4,63.7,30.02,ESE,103,0.1,1.5,67,0.00,OVC,,0.57,107.0,WeatherDisplay:10.37,2013-08-06 21:52:00,
2013-08-06 17:57:00,75.6,64.3,30.02,ESE,107,1.5,3.5,68,0.00,OVC,,0.57,271.0,WeatherDisplay:10.37,2013-08-06 21:57:00,
2013-08-06 18:02:00,75.6,63.9,30.02,South,173,1.0,4.5,67,0.00,BKN,,0.57,142.0,WeatherDisplay:10.37,2013-08-06 22:02:00,
2013-08-06 18:07:00,75.3,63.2,30.02,SSE,162,0.7,3.5,66,0.00,BKN,,0.57,127.0,WeatherDisplay:10.37,2013-08-06 22:07:00,
2013-08-06 18:12:00,75.1,63.0,30.02,SSE,149,8.7,10.4,66,0.00,BKN,,0.57,125.0,WeatherDisplay:10.37,2013-08-06 22:12:00,
2013-08-06 18:17:00,74.7,62.6,30.03,SSE,159,4.3,10.4,66,0.00,BKN,,0.57,123.0,WeatherDisplay:10.37,2013-08-06 22:17:00,
2013-08-06 18:22:00,74.6,62.9,30.02,SSE,164,3.1,9.2,67,0.00,BKN,,0.57,223.0,WeatherDisplay:10.37,2013-08-06 22:22:00,
2013-08-06 18:27:00,74.6,62.5,30.02,SE,144,3.9,6.0,66,0.00,BKN,,0.57,148.0,WeatherDisplay:10.37,2013-08-06 22:27:00,
2013-08-06 18:32:00,74.6,62.9,30.02,ESE,121,2.8,6.0,67,0.00,BKN,,0.57,109.0,WeatherDisplay:10.37,2013-08-06 22:32:00,
2013-08-06 18:37:00,74.4,63.1,30.02,SE,124,2.1,4.5,68,0.00,BKN,,0.57,84.0,WeatherDisplay:10.37,2013-08-06 22:37:00,
2013-08-06 18:42:00,74.4,63.1,30.03,SSE,157,0.0,4.6,68,0.00,BKN,,0.57,86.0,WeatherDisplay:10.37,2013-08-06 22:42:00,
2013-08-06 18:47:00,74.2,63.4,30.02,SSE,156,0.0,3.5,69,0.00,BKN,,0.57,72.0,WeatherDisplay:10.37,2013-08-06 22:47:00,
2013-08-06 18:52:00,74.2,63.4,30.03,SSE,156,0.5,3.0,69,0.00,BKN,,0.57,81.0,WeatherDisplay:10.37,2013-08-06 22:52:00,
2013-08-06 18:57:00,73.9,63.1,30.03,SSE,155,0.0,1.2,69,0.00,BKN,,0.57,70.0,WeatherDisplay:10.37,2013-08-06 22:57:00,
2013-08-06 19:02:00,73.5,63.1,30.03,SSE,148,0.1,1.5,70,0.00,BKN,,0.57,86.0,WeatherDisplay:10.37,2013-08-06 23:02:00,
2013-08-06 19:07:00,73.3,62.9,30.03,SSE,157,1.9,4.6,70,0.00,BKN,,0.57,65.0,WeatherDisplay:10.37,2013-08-06 23:07:00,
2013-08-06 19:12:00,73.2,62.4,30.03,SE,146,0.5,1.5,69,0.00,OVC,,0.57,93.0,WeatherDisplay:10.37,2013-08-06 23:12:00,
2013-08-06 19:17:00,73.2,62.8,30.03,SE,146,0.1,1.2,70,0.00,OVC,,0.57,97.0,WeatherDisplay:10.37,2013-08-06 23:17:00,
2013-08-06 19:22:00,73.0,62.2,30.03,SE,146,0.3,1.5,69,0.00,OVC,,0.57,54.0,WeatherDisplay:10.37,2013-08-06 23:22:00,
2013-08-06 19:27:00,72.8,62.0,30.03,SSE,162,1.2,4.6,69,0.00,OVC,,0.57,58.0,WeatherDisplay:10.37,2013-08-06 23:27:00,
2013-08-06 19:32:00,72.7,61.9,30.03,ESE,115,0.1,1.2,69,0.00,OVC,,0.57,35.0,WeatherDisplay:10.37,2013-08-06 23:32:00,
2013-08-06 19:37:00,72.3,62.0,30.03,SE,127,0.0,3.5,70,0.00,OVC,,0.57,28.0,WeatherDisplay:10.37,2013-08-06 23:37:00,
2013-08-06 19:42:00,72.1,62.2,30.04,SSE,153,0.0,1.2,71,0.00,OVC,,0.57,25.0,WeatherDisplay:10.37,2013-08-06 23:42:00,
2013-08-06 19:47:00,71.8,62.3,30.04,SSE,157,1.4,3.5,72,0.00,OVC,,0.57,23.0,WeatherDisplay:10.37,2013-08-06 23:47:00,
2013-08-06 19:52:00,71.6,62.1,30.04,SSE,166,0.0,0.0,72,0.00,OVC,,0.57,18.0,WeatherDisplay:10.37,2013-08-06 23:52:00,
2013-08-06 19:57:00,71.3,62.2,30.04,SSE,166,0.0,0.0,73,0.00,OVC,,0.57,14.0,WeatherDisplay:10.37,2013-08-06 23:57:00,
2013-08-06 20:02:00,71.1,62.0,30.04,SSE,166,0.0,0.0,73,0.00,OVC,,0.57,11.0,WeatherDisplay:10.37,2013-08-07 00:02:00,
2013-08-06 20:07:00,70.8,62.1,30.04,SSE,157,0.0,3.5,74,0.00,OVC,,0.57,7.0,WeatherDisplay:10.37,2013-08-07 00:07:00,
2013-08-06 20:12:00,70.8,62.5,30.05,South,178,0.0,0.0,75,0.00,OVC,,0.57,5.0,WeatherDisplay:10.37,2013-08-07 00:12:00,
2013-08-06 20:17:00,70.6,62.3,30.05,SSE,153,0.7,3.5,75,0.00,OVC,,0.57,0.0,WeatherDisplay:10.37,2013-08-07 00:17:00,
2013-08-06 20:22:00,70.4,62.1,30.05,SSE,153,0.2,1.5,75,0.00,OVC,,0.57,0.0,WeatherDisplay:10.37,2013-08-07 00:22:00,
2013-08-06 20:27:00,70.3,62.4,30.05,South,173,0.4,3.5,76,0.00,OVC,,0.57,0.0,WeatherDisplay:10.37,2013-08-07 00:27:00,
2013-08-06 20:32:00,70.1,62.6,30.05,South,175,2.4,6.0,77,0.00,OVC,,0.57,0.0,WeatherDisplay:10.37,2013-08-07 00:32:00,
2013-08-06 20:37:00,70.1,62.6,30.05,South,172,0.2,1.5,77,0.00,OVC,,0.57,0.0,WeatherDisplay:10.37,2013-08-07 00:37:00,
2013-08-06 20:42:00,69.8,62.3,30.05,ESE,114,5.2,5.8,77,0.00,OVC,,0.57,0.0,WeatherDisplay:10.37,2013-08-07 00:42:00,
2013-08-06 20:47:00,69.8,62.6,30.05,SE,125,0.2,1.2,78,0.00,OVC,,0.57,0.0,WeatherDisplay:10.37,2013-08-07 00:47:00,
2013-08-06 20:52:00,69.6,62.4,30.05,SE,128,1.2,3.0,78,0.00,OVC,,0.57,0.0,WeatherDisplay:10.37,2013-08-07 00:52:00,
2013-08-06 20:57:00,69.4,62.2,30.05,SSE,155,0.4,3.5,78,0.00,OVC,,0.57,0.0,WeatherDisplay:10.37,2013-08-07 00:57:00,
2013-08-06 21:02:00,69.3,62.1,30.06,SSE,155,0.0,0.0,78,0.00,OVC,,0.57,0.0,WeatherDisplay:10.37,2013-08-07 01:02:00,
2013-08-06 21:07:00,69.3,62.5,30.06,SSE,155,0.8,4.6,79,0.00,OVC,,0.57,0.0,WeatherDisplay:10.37,2013-08-07 01:07:00,
2013-08-06 21:12:00,69.1,62.3,30.05,SE,137,0.3,1.5,79,0.00,OVC,,0.57,0.0,WeatherDisplay:10.37,2013-08-07 01:12:00,
2013-08-06 21:17:00,69.1,62.3,30.05,SSE,160,0.5,3.5,79,0.00,OVC,,0.57,0.0,WeatherDisplay:10.37,2013-08-07 01:17:00,
2013-08-06 21:22:00,68.9,62.5,30.05,SSE,160,1.6,4.5,80,0.00,OVC,,0.57,0.0,WeatherDisplay:10.37,2013-08-07 01:22:00,
2013-08-06 21:27:00,68.8,62.4,30.05,SSE,157,0.1,1.2,80,0.00,OVC,,0.57,0.0,WeatherDisplay:10.37,2013-08-07 01:27:00,
2013-08-06 21:32:00,68.6,62.2,30.05,SSE,153,2.2,7.5,80,0.00,OVC,,0.57,0.0,WeatherDisplay:10.37,2013-08-07 01:32:00,
2013-08-06 21:37:00,68.6,62.5,30.05,SSE,165,1.0,3.5,81,0.00,OVC,,0.57,0.0,WeatherDisplay:10.37,2013-08-07 01:37:00,
2013-08-06 21:42:00,68.6,62.5,30.06,SSE,161,3.1,6.0,81,0.00,OVC,,0.57,0.0,WeatherDisplay:10.37,2013-08-07 01:42:00,
2013-08-06 21:47:00,68.4,62.3,30.06,SSE,159,0.6,3.0,81,0.00,OVC,,0.57,0.0,WeatherDisplay:10.37,2013-08-07 01:47:00,
2013-08-06 21:52:00,68.4,62.3,30.05,SSE,157,0.5,3.5,81,0.00,OVC,,0.57,0.0,WeatherDisplay:10.37,2013-08-07 01:52:00,
2013-08-06 21:57:00,68.4,62.3,30.05,SSE,159,4.9,7.5,81,0.00,OVC,,0.57,0.0,WeatherDisplay:10.37,2013-08-07 01:57:00,
2013-08-06 22:02:00,68.4,62.3,30.05,ESE,115,0.2,1.5,81,0.00,OVC,,0.57,0.0,WeatherDisplay:10.37,2013-08-07 02:02:00,
2013-08-06 22:07:00,68.3,62.2,30.06,SSE,153,1.0,3.5,81,0.00,OVC,,0.57,0.0,WeatherDisplay:10.37,2013-08-07 02:07:00,
2013-08-06 22:12:00,68.3,62.6,30.06,SSE,164,0.1,1.2,82,0.00,OVC,,0.57,0.0,WeatherDisplay:10.37,2013-08-07 02:12:00,
2013-08-06 22:17:00,68.3,62.6,30.06,South,172,0.0,1.2,82,0.00,OVC,,0.57,0.0,WeatherDisplay:10.37,2013-08-07 02:17:00,
2013-08-06 22:22:00,68.1,62.4,30.06,South,178,0.1,1.2,82,0.00,OVC,,0.57,0.0,WeatherDisplay:10.37,2013-08-07 02:22:00,
2013-08-06 22:27:00,68.1,62.4,30.06,South,177,0.5,3.5,82,0.00,OVC,,0.57,0.0,WeatherDisplay:10.37,2013-08-07 02:27:00,
2013-08-06 22:32:00,68.1,62.4,30.06,SSW,210,0.7,3.0,82,0.00,OVC,,0.57,0.0,WeatherDisplay:10.37,2013-08-07 02:32:00,
2013-08-06 22:37:00,68.1,62.4,30.06,SSW,210,0.1,1.5,82,0.00,OVC,,0.57,0.0,WeatherDisplay:10.37,2013-08-07 02:37:00,
2013-08-06 22:42:00,67.9,62.5,30.06,SSW,210,0.0,0.0,83,0.00,OVC,,0.57,0.0,WeatherDisplay:10.37,2013-08-07 02:42:00,
2013-08-06 22:47:00,67.9,62.5,30.07,SSW,209,0.0,0.0,83,0.00,OVC,,0.57,0.0,WeatherDisplay:10.37,2013-08-07 02:47:00,
2013-08-06 22:52:00,67.9,62.5,30.06,SSW,209,0.2,1.2,83,0.00,OVC,,0.57,0.0,WeatherDisplay:10.37,2013-08-07 02:52:00,
2013-08-06 22:57:00,68.1,62.7,30.06,SSW,209,0.0,0.0,83,0.00,OVC,,0.57,0.0,WeatherDisplay:10.37,2013-08-07 02:57:00,
2013-08-06 23:02:00,68.1,63.1,30.06,SSW,206,0.5,4.6,84,0.00,OVC,,0.57,0.0,WeatherDisplay:10.37,2013-08-07 03:02:00,
2013-08-06 23:07:00,68.3,63.3,30.06,SSW,192,0.0,0.0,84,0.00,OVC,,0.57,0.0,WeatherDisplay:10.37,2013-08-07 03:07:00,
2013-08-06 23:12:00,68.3,63.3,30.06,SSW,192,0.1,1.2,84,0.00,OVC,,0.57,0.0,WeatherDisplay:10.37,2013-08-07 03:12:00,
2013-08-06 23:17:00,68.4,63.4,30.06,SSW,192,0.0,0.0,84,0.00,OVC,,0.57,0.0,WeatherDisplay:10.37,2013-08-07 03:17:00,
2013-08-06 23:22:00,68.4,63.4,30.06,South,174,0.0,0.0,84,0.00,OVC,,0.57,0.0,WeatherDisplay:10.37,2013-08-07 03:22:00,
2013-08-06 23:27:00,68.4,63.4,30.06,South,174,0.0,0.0,84,0.00,OVC,,0.57,0.0,WeatherDisplay:10.37,2013-08-07 03:27:00,
2013-08-06 23:32:00,68.6,63.6,30.06,South,174,1.4,4.6,84,0.00,OVC,,0.57,0.0,WeatherDisplay:10.37,2013-08-07 03:32:00,
2013-08-06 23:37:00,68.6,63.6,30.06,South,174,0.1,1.2,84,0.00,OVC,,0.57,0.0,WeatherDisplay:10.37,2013-08-07 03:37:00,
2013-08-06 23:42:00,68.6,63.6,30.06,South,174,0.0,0.0,84,0.00,OVC,,0.57,0.0,WeatherDisplay:10.37,2013-08-07 03:42:00,
2013-08-06 23:47:00,68.6,63.6,30.06,South,174,0.1,1.2,84,0.00,OVC,,0.57,0.0,WeatherDisplay:10.37,2013-08-07 03:47:00,
2013-08-06 23:52:00,68.8,63.8,30.06,South,172,0.0,0.0,84,0.00,OVC,,0.57,0.0,WeatherDisplay:10.37,2013-08-07 03:52:00,
2013-08-06 23:57:00,68.8,63.8,30.06,South,172,0.0,0.0,84,0.00,OVC,,0.57,0.0,WeatherDisplay:10.37,2013-08-07 03:57:00,